User: anonymous   Login
Location: Caltech
(34.1382°N, 118.1253°W)
Time: 08:25:37
(UTC-07:00)
Language:

TMSAT-1 - Orbit

View from above orbital plane
View from above orbital plane
View from above satellite
View from above satellite

Ground track
Ground track

The orbit data is extracted from the following two-line orbital elements,

1 25396U 98043C   18110.88970944 +.00000028 +00000-0 +30770-4 0  9990
2 25396 098.6214 053.5089 0003301 132.9098 227.2358 14.24477869027725
Epoch (UTC): 20 April 2018 21:21:10
Eccentricity: 0.0003301
inclination: 98.6214°
perigee height: 808 km
apogee height: 812 km
right ascension of ascending node: 53.5089°
argument of perigee: 132.9098°
revolutions per day: 14.24477869
mean anomaly at epoch: 227.2358°
orbit number at epoch: 2772

The dashed part of the orbit path shows where the satellite is in the earth's shadow,  

DLR